Regional Weather Roundup
Issued by NWS

Home | Current Version | Previous Version | Graphics & Text | Print | Product List | Glossary On
Versions: 1 2 3 4 5 6 7 8 9 10 11 12 13 14 15 16 17 18 19 20 21 22 23 24 25 26 27 28 29 30 31 32 33 34 35 36 37 38 39 40 41 42 43 44 45 46 47 48 49 50
429
ASUS43 KLOT 250604
RWRIL

ILLINOIS REGIONAL WEATHER ROUNDUP
NATIONAL WEATHER SERVICE CHICAGO/ROMEOVILLE IL
100 AM CDT TUE JUL 25 2017

NOTE: "FAIR" INDICATES FEW OR NO CLOUDS BELOW 12,000 FEET WITH NO
SIGNIFICANT WEATHER AND/OR OBSTRUCTIONS TO VISIBILITY.

* THESE STATIONS ARE NOT UNDER NWS QUALITY CONTROL. THEY ALSO MAY NOT
  REPORT WEATHER SUCH AS PRECIPITATION OR FOG.

ILZ001-002-007-009-015-016-024-250700-
NORTHWEST ILLINOIS

CITY           SKY/WX    TMP DP  RH WIND       PRES   REMARKS
MOLINE         CLEAR     63  59  87 E6        30.11R
6HR MIN TEMP:  63; 6HR MAX TEMP:  74;

STERLING*      CLEAR     60  59  96 E3        30.13R
SAVANNA*       CLEAR     61  58  91 E5        30.12R
$$

ILZ003-004-008-010-011-017-018-250700-
NORTH CENTRAL ILLINOIS

CITY           SKY/WX    TMP DP  RH WIND       PRES   REMARKS
ROCKFORD       CLEAR     62  59  90 SE6       30.15R
6HR MIN TEMP:  62; 6HR MAX TEMP:  76;

FREEPORT*      CLEAR     57  56  95 E3        30.15R
ROCHELLE*      CLEAR     58  58  97 E6        30.14S
DE KALB*       CLEAR     58  57  96 CALM      30.15S
$$

ILZ005-006-012>014-019>023-250700-
NORTHEAST ILLINOIS

CITY           SKY/WX    TMP DP  RH WIND       PRES   REMARKS
CHICAGO-OHARE  PTCLDY    66  59  78 NE5       30.13R
6HR MIN TEMP:  66; 6HR MAX TEMP:  70;

CHICAGO-MIDWAY PTCLDY    69  61  75 NE8       30.13R
6HR MIN TEMP:  68; 6HR MAX TEMP:  71;

AURORA         CLEAR     59  58  96 CALM      30.14R
6HR MIN TEMP:  58; 6HR MAX TEMP:  73;

LANSING*       CLEAR     64  59  85 CALM      30.14R
JOLIET*        CLEAR     65  62  87 CALM      30.14R
WAUKEGAN       CLEAR     59  59 100 CALM      30.13R
6HR MIN TEMP:  58; 6HR MAX TEMP:  67;

DUPAGE AIRPORT CLEAR     59  58  96 NE3       30.13R
6HR MIN TEMP:  58; 6HR MAX TEMP:  71;

WHEELING       CLEAR     64  63  96 CALM      30.15R
6HR MIN TEMP:  63; 6HR MAX TEMP:  69;

MORRIS*        CLEAR     61  59  91 CALM      30.12R
NORTHERLY ISL    N/A     69  61  75 CALM        N/A
$$

LMZ740>746-250700-
SOUTHERN LAKE MICHIGAN

STATION/POSITION SKY/WX   TEMP    WIND        PRES    VSBY  WAVE
                          AIR SEA DIR/SP/G                  HT/PER
                          (F)     (DEG/KT/KT) (MB)    (MI)  (FT/S)
SOUTHERN BUOY              68 70   40/ 10/ 12 1019.7          3/ 6
WILMETTE HARBOR            69 72   60/  6/ 10   N/A           4/ 6
HARRISON CRIB              70      80/  8/  9   N/A
BURNHAM HARBOR             69                   N/A
CALUMET HARBOR             70      70/  8/  9 1019.9R
BURNS HARBOR               67      90/  8/  9 1020.7R
MICHIGAN CITY              65      80/  8/  9   N/A
MICHIGAN CITY 6N           68 74  100/  8/ 10   N/A           4/ 6
ST. JOSEPH                 66 72  130/  6/  6 1020.3R         3/ 6
$$

ILZ025>027-034>036-040-047-049-050-058-095>099-250700-
WEST-CENTRAL ILLINOIS

CITY           SKY/WX    TMP DP  RH WIND       PRES   REMARKS
QUINCY         CLEAR     69  65  86 E6        30.09R
GALESBURG*     CLEAR     65  62  89 E3        30.12S
MACOMB*        CLEAR     62  62  98 NE3       30.13R
JACKSONVILLE*  CLEAR     66  64  94 CALM      30.09R
PITTSFIELD*    CLEAR     69  67  93 NE5       30.10R
$$

ILZ028>032-037-038-041>044-048-051>054-059>061-250700-
CENTRAL ILLINOIS

CITY           SKY/WX    TMP DP  RH WIND       PRES   REMARKS
PONTIAC        CLEAR     60  59  97 NE5       30.14R
BLOOMINGTON    CLEAR     62  59  90 E10       30.13R
DECATUR        CLEAR     64  62  93 E6        30.09S
PEORIA         CLEAR     67  62  84 E8        30.12R
6HR MIN TEMP:  67; 6HR MAX TEMP:  76;

LACON*         CLEAR     62  60  93 E7        30.12R
LINCOLN*       CLEAR     65  63  93 NE6       30.10R
SPRINGFIELD    CLEAR     69  64  84 E7        30.09R
6HR MIN TEMP:  69; 6HR MAX TEMP:  80;

TAYLORVILLE    NOT AVBL
$$

ILZ033-039-045-046-055>057-062-063-250700-
EAST-CENTRAL ILLINOIS

CITY           SKY/WX    TMP DP  RH WIND       PRES   REMARKS
CHAMPAIGN      CLEAR     64  60  87 NE8       30.11R
MATTOON        CLEAR     66  64  93 NE3       30.09R
PARIS*         CLEAR     64  63  97 NE5       30.11R
$$

ILZ079-100>102-250700-
SOUTHWEST ILLINOIS

CITY           SKY/WX    TMP DP  RH WIND       PRES   REMARKS
ALTON          CLEAR     71  68  92 NE3       30.07R
BELLEVILLE     CLEAR     72  68  87 NE3       30.07R
CAHOKIA*       CLEAR     75  67  76 E7        30.05R
SPARTA*        PTCLDY    72  68  86 NE3       30.05R
$$

ILZ064>066-069>071-074>076-080>082-084>086-088>090-092>094-250700-
SOUTH-CENTRAL ILLINOIS

CITY           SKY/WX    TMP DP  RH WIND       PRES   REMARKS
CARBONDALE     MOCLDY    74  72  93 CALM      30.03R
6HR MIN TEMP:  73; 6HR MAX TEMP:  87;

CAIRO*         MOCLDY    78  74  89 NE6       30.02R HX  80
EFFINGHAM*     CLEAR     68  67  94 CALM      30.09S
MARION         MOCLDY    77  73  88 NE6       30.04R
MT. VERNON     CLEAR     72  68  87 NE5       30.06R
CENTRALIA*     CLEAR     72  69  92 NE5       30.05S
SALEM*         CLEAR     73  67  84 NE5       30.07R
METROPOLIS*    PTCLDY    75  73  94 CALM      30.03R
$$

ILZ067-068-072-073-078-083-087-091-250700-
SOUTHEAST ILLINOIS

CITY           SKY/WX    TMP DP  RH WIND       PRES   REMARKS
LAWRENCEVILLE  CLEAR     71  67  87 NE7       30.07R
FLORA*         CLEAR     72  68  86 NE7       30.07R
FAIRFIELD*     CLEAR     71  69  95 N3        30.04S
HARRISBURG*    CLEAR     73  69  86 E3        30.04R
ROBINSON*      CLEAR     67  65  95 NE5       30.09R
CARMI*         CLEAR     71  69  95 N5        30.04R
$$

ABBREVIATIONS USED IN REMARKS
   TC - TEMPERATURE IN CELSIUS
  WCI - WIND CHILL INDEX
   HX - HEAT INDEX
  VSB - VISIBILITY
$$





USA.gov is the U.S. government's official web portal to all federal, state and local government web resources and services.